Location: York
(31.8935°S, 116.7682°E)
Time: 08:59:34
(UTC+08:00)

N. Korean satellite - Pass Details

Date: 17 May 2021
Orbit: 450 x 500 km, 97.2° (Epoch: 13 June)

Event Time Altitude Azimuth Distance (km) Brightness Sun altitude
Rises 04:49:57 0° 14° (NNE) 2,473 10.4 -26.5°
Reaches altitude 10° 04:51:57 10° 14° (NNE) 1,615 9.4 -26.1°
Enters shadow 04:52:33 15° 15° (NNE) 1,365 9.0 -26.0°
